G-SAT (45597 NORAD) Tracking and Keplerian Element Data

This shows tracking and keplerian element data for the satellite.

Feedback or suggestion? Click here.




ElementValue
Catalog45597
NameG-SAT
Epoch Orbit472
Epoch Day149.20230398
Epoch Year2020
RAAN87.1932
Inclination51.6426
Eccentricity0.0005257
Argument of Perigee354.9098
Mean Anonmoly5.1837
Mean Motion15.50379794
Decay Rate3.81E-05
L11 45597U 98067RK 20149.20230398 .00003810 00000-0 73753-4 0 9994
L22 45597 51.6426 87.1932 0005257 354.9098 5.1837 15.50379794 4720

Live tracking and technical data element details for G-SAT (NORAD 45597). G-SAT can be tracked NOW for your location showing map with azimuth and elevation plus other details from your city location.

Track the satellite on the map from your city or location and see movement details for azimuth, elevation, latitude, longitude, range, height, and movement on the map or in text.







IsCatalogInMostPopularTable: catalog: 45597, numindb: 8
Update: records affected: 1



GetName: 45597 G-SAT

Hit Count: updated at: Sat, 30 May 2020 14:57:49 GMT